| time (UTC) | temp C | wind direction | speed KPH | gust KPH | rain 1hr cm | rain 24hr cm | rain mn cm | humidity % | barometer mb |
| 20260902150527 | 20 | 324 | 1.6 | 4.8 | 0.00 | 0.00 | 0.00 | 93 | 1019.2 |
| 20260902145031 | 20 | 19 | 0.0 | 0.0 | 0.00 | 0.08 | 0.00 | 93 | 1019.3 |
| 20260902143536 | 20 | 11 | 0.0 | 4.8 | 0.00 | 0.08 | 0.00 | 93 | 1019.7 |
| 20260902142033 | 20 | 265 | 1.6 | 6.4 | 0.00 | 0.08 | 0.00 | 93 | 1019.6 |
| 20260902140542 | 20 | 279 | 1.6 | 6.4 | 0.00 | 0.08 | 0.00 | 93 | 1019.2 |
| 20260902135047 | 20 | 25 | 1.6 | 3.2 | 0.00 | 0.08 | 0.00 | 94 | 1018.9 |
| 20260902133536 | 20 | 13 | 1.6 | 3.2 | 0.00 | 0.08 | 0.00 | 94 | 1019.0 |
| 20260902132042 | 20 | 248 | 0.0 | 3.2 | 0.00 | 0.08 | 0.00 | 94 | 1018.9 |
| 20260902130530 | 20 | 200 | 0.0 | 3.2 | 0.00 | 0.08 | 0.00 | 94 | 1018.8 |
| 20260902125054 | 20 | 81 | 0.0 | 3.2 | 0.00 | 0.08 | 0.00 | 94 | 1018.9 |
| 20260902123543 | 20 | 320 | 0.0 | 3.2 | 0.00 | 0.08 | 0.00 | 95 | 1018.7 |
| 20260902122030 | 20 | 17 | 0.0 | 0.0 | 0.00 | 0.08 | 0.00 | 95 | 1018.7 |
| 20260902120540 | 20 | 169 | 0.0 | 0.0 | 0.00 | 0.08 | 0.00 | 95 | 1018.6 |
| 20260902115043 | 20 | 169 | 0.0 | 4.8 | 0.00 | 0.08 | 0.00 | 94 | 1018.7 |
| 20260902113527 | 20 | 90 | 0.0 | 0.0 | 0.00 | 0.08 | 0.00 | 95 | 1018.7 |
| 20260902112036 | 20 | 96 | 0.0 | 0.0 | 0.00 | 0.08 | 0.00 | 94 | 1018.6 |
| 20260902110543 | 20 | 96 | 0.0 | 1.6 | 0.00 | 0.08 | 0.00 | 94 | 1018.3 |
| 20260902105048 | 20 | 96 | 0.0 | 1.6 | 0.00 | 0.08 | 0.00 | 94 | 1018.2 |
| 20260902103600 | 20 | 150 | 0.0 | 0.0 | 0.00 | 0.08 | 0.00 | 94 | 1018.1 |
| 20260902102029 | 20 | 150 | 0.0 | 0.0 | 0.00 | 0.08 | 0.00 | 94 | 1018.1 |
| 20260902100535 | 20 | 150 | 0.0 | 1.6 | 0.00 | 0.08 | 0.00 | 94 | 1018.0 |
| 20260902095053 | 20 | 269 | 0.0 | 1.6 | 0.00 | 0.08 | 0.00 | 94 | 1018.0 |
| 20260902093542 | 20 | 300 | 0.0 | 0.0 | 0.00 | 0.08 | 0.00 | 95 | 1018.0 |
| 20260902092052 | 20 | 300 | 0.0 | 1.6 | 0.00 | 0.08 | 0.00 | 95 | 1018.0 |
| 20260902090600 | 21 | 315 | 0.0 | 0.0 | 0.00 | 0.08 | 0.00 | 95 | 1017.7 |
| 20260902085043 | 21 | 315 | 0.0 | 0.0 | 0.00 | 0.08 | 0.00 | 96 | 1017.6 |
| 20260902083530 | 21 | 214 | 0.0 | 1.6 | 0.00 | 0.08 | 0.00 | 96 | 1017.3 |
| 20260902082043 | 21 | 7 | 0.0 | 4.8 | 0.00 | 0.08 | 0.00 | 96 | 1017.2 |
| 20260902080530 | 21 | 352 | 0.0 | 0.0 | 0.00 | 0.08 | 0.00 | 96 | 1017.1 |
| 20260902075032 | 21 | 352 | 0.0 | 0.0 | 0.00 | 0.08 | 0.00 | 96 | 1016.9 |
| 20260902073541 | 22 | 352 | 0.0 | 1.6 | 0.00 | 0.08 | 0.00 | 96 | 1016.9 |
| 20260902072031 | 22 | 352 | 0.0 | 3.2 | 0.00 | 0.08 | 0.00 | 96 | 1016.8 |
| 20260902070541 | 22 | 354 | 0.0 | 1.6 | 0.00 | 0.08 | 0.00 | 96 | 1016.8 |
| 20260902065036 | 22 | 335 | 0.0 | 1.6 | 0.00 | 0.08 | 0.00 | 96 | 1016.8 |
| 20260902063540 | 22 | 15 | 1.6 | 3.2 | 0.00 | 0.08 | 0.00 | 96 | 1016.6 |
| 20260902062047 | 22 | 227 | 0.0 | 1.6 | 0.00 | 0.08 | 0.00 | 96 | 1017.0 |
| 20260902060550 | 22 | 228 | 0.0 | 3.2 | 0.00 | 0.08 | 0.00 | 96 | 1017.1 |
| 20260902055054 | 22 | 319 | 0.0 | 4.8 | 0.00 | 0.08 | 0.00 | 96 | 1017.1 |
| 20260902053543 | 22 | 303 | 0.0 | 6.4 | 0.00 | 0.08 | 0.00 | 96 | 1017.0 |
| 20260902052032 | 22 | 313 | 0.0 | 1.6 | 0.00 | 0.08 | 0.00 | 96 | 1016.9 |
| 20260902050543 | 22 | 313 | 0.0 | 1.6 | 0.00 | 0.08 | 0.00 | 96 | 1016.9 |
| 20260902045044 | 22 | 314 | 0.0 | 8.0 | 0.00 | 0.08 | 0.00 | 97 | 1016.9 |
| 20260902043535 | 22 | 321 | 3.2 | 6.4 | 0.00 | 0.08 | 0.00 | 97 | 1016.7 |
| 20260902042044 | 22 | 279 | 1.6 | 4.8 | 0.00 | 0.08 | 0.00 | 96 | 1016.7 |
| 20260902040553 | 22 | 354 | 0.0 | 0.0 | 0.00 | 0.08 | 0.00 | 96 | 1016.6 |
| 20260902035031 | 22 | 354 | 0.0 | 0.0 | 0.00 | 0.08 | 0.08 | 96 | 1016.6 |
| 20260902033541 | 22 | 13 | 0.0 | 0.0 | 0.00 | 0.08 | 0.08 | 96 | 1016.1 |
| 20260902032029 | 21 | 34 | 0.0 | 1.6 | 0.00 | 0.08 | 0.08 | 96 | 1016.0 |
| 20260902030538 | 21 | 34 | 0.0 | 1.6 | 0.00 | 0.08 | 0.08 | 95 | 1016.0 |
| 20260902025057 | 21 | 34 | 0.0 | 0.0 | 0.00 | 0.08 | 0.08 | 95 | 1015.2 |
| 20260902023544 | 22 | 34 | 0.0 | 0.0 | 0.00 | 0.08 | 0.08 | 94 | 1015.0 |
| 20260902022033 | 22 | 34 | 0.0 | 0.0 | 0.00 | 0.08 | 0.08 | 94 | 1014.9 |
| 20260902020542 | 22 | 34 | 0.0 | 0.0 | 0.00 | 0.08 | 0.08 | 94 | 1014.6 |
| 20260902015045 | 22 | 34 | 0.0 | 0.0 | 0.00 | 0.08 | 0.08 | 94 | 1014.4 |
| 20260902013534 | 22 | 34 | 0.0 | 0.0 | 0.00 | 0.08 | 0.08 | 93 | 1014.2 |
| 20260902012045 | 22 | 34 | 0.0 | 0.0 | 0.00 | 0.08 | 0.08 | 93 | 1014.5 |
| 20260902010533 | 22 | 34 | 0.0 | 1.6 | 0.00 | 0.08 | 0.08 | 93 | 1014.9 |
| 20260902005156 | 22 | 334 | 0.0 | 6.4 | 0.00 | 0.08 | 0.08 | 93 | 1015.1 |
| 20260902003551 | 22 | 94 | 0.0 | 0.0 | 0.00 | 0.08 | 0.08 | 92 | 1014.2 |
| 20260902002034 | 23 | 94 | 0.0 | 0.0 | 0.00 | 0.08 | 0.08 | 91 | 1013.7 |
| 20260902000547 | 23 | 94 | 0.0 | 0.0 | 0.00 | 0.08 | 0.08 | 91 | 1013.8 |
| 20260901235029 | 23 | 94 | 0.0 | 0.0 | 0.00 | 0.08 | 0.08 | 91 | 1013.8 |
| 20260901233531 | 24 | 94 | 0.0 | 0.0 | 0.00 | 0.08 | 0.08 | 90 | 1013.2 |
| 20260901232043 | 24 | 94 | 0.0 | 0.0 | 0.00 | 0.08 | 0.08 | 89 | 1012.9 |
| 20260901230534 | 25 | 94 | 0.0 | 1.6 | 0.00 | 0.08 | 0.08 | 88 | 1013.0 |
| 20260901225038 | 25 | 94 | 0.0 | 0.0 | 0.00 | 0.08 | 0.08 | 89 | 1013.2 |
| 20260901223536 | 25 | 94 | 0.0 | 4.8 | 0.00 | 0.08 | 0.08 | 89 | 1013.5 |
| 20260901222047 | 26 | 55 | 1.6 | 3.2 | 0.00 | 0.08 | 0.08 | 90 | 1013.3 |
| 20260901220556 | 26 | 310 | 0.0 | 0.0 | 0.00 | 0.08 | 0.08 | 89 | 1012.8 |
| 20260901215100 | 27 | 310 | 0.0 | 0.0 | 0.00 | 0.08 | 0.08 | 87 | 1012.2 |
| 20260901213553 | 27 | 310 | 0.0 | 0.0 | 0.00 | 0.08 | 0.08 | 83 | 1012.5 |
| 20260901212043 | 28 | 310 | 0.0 | 0.0 | 0.00 | 0.08 | 0.08 | 81 | 1012.7 |
| 20260901210532 | 28 | 310 | 0.0 | 3.2 | 0.00 | 0.08 | 0.08 | 81 | 1012.6 |
| 20260901205055 | 29 | 258 | 1.6 | 8.0 | 0.00 | 0.08 | 0.08 | 77 | 1012.3 |
| 20260901203538 | 29 | 281 | 3.2 | 11.3 | 0.00 | 0.08 | 0.08 | 78 | 1012.4 |
| 20260901202043 | 29 | 241 | 4.8 | 9.7 | 0.00 | 0.08 | 0.08 | 77 | 1012.6 |
| 20260901200552 | 28 | 10 | 4.8 | 14.5 | 0.00 | 0.08 | 0.08 | 79 | 1012.7 |
| 20260901195032 | 28 | 317 | 1.6 | 4.8 | 0.00 | 0.10 | 0.08 | 82 | 1012.6 |
| 20260901193539 | 28 | 250 | 1.6 | 11.3 | 0.00 | 0.10 | 0.08 | 82 | 1012.8 |
| 20260901192028 | 28 | 4 | 1.6 | 6.4 | 0.00 | 0.10 | 0.08 | 83 | 1013.2 |
| 20260901190534 | 28 | 24 | 0.0 | 4.8 | 0.00 | 0.10 | 0.08 | 84 | 1013.1 |
| 20260901185037 | 28 | 210 | 1.6 | 3.2 | 0.00 | 0.10 | 0.08 | 85 | 1013.4 |
| 20260901183542 | 28 | 55 | 0.0 | 4.8 | 0.00 | 0.10 | 0.08 | 83 | 1013.3 |
| 20260901182031 | 28 | 351 | 1.6 | 4.8 | 0.00 | 0.10 | 0.08 | 85 | 1013.4 |
| 20260901180536 | 27 | 271 | 1.6 | 6.4 | 0.00 | 0.10 | 0.08 | 84 | 1013.3 |
| 20260901175041 | 27 | 302 | 3.2 | 8.0 | 0.00 | 0.10 | 0.08 | 83 | 1013.3 |
| 20260901173546 | 27 | 335 | 1.6 | 4.8 | 0.00 | 0.10 | 0.08 | 86 | 1013.4 |
| 20260901172054 | 26 | 325 | 1.6 | 6.4 | 0.00 | 0.10 | 0.08 | 92 | 1013.5 |
| 20260901170542 | 25 | 347 | 1.6 | 4.8 | 0.00 | 0.10 | 0.08 | 93 | 1013.7 |
| 20260901165042 | 25 | 333 | 1.6 | 3.2 | 0.00 | 0.10 | 0.08 | 94 | 1014.0 |
| 20260901163549 | 25 | 27 | 1.6 | 4.8 | 0.00 | 0.10 | 0.08 | 94 | 1014.3 |
| 20260901162058 | 25 | 76 | 0.0 | 6.4 | 0.00 | 0.10 | 0.08 | 94 | 1014.2 |
| 20260901160539 | 24 | 82 | 1.6 | 4.8 | 0.00 | 0.10 | 0.08 | 95 | 1014.4 |
| 20260901155039 | 24 | 334 | 1.6 | 4.8 | 0.00 | 0.10 | 0.08 | 96 | 1014.6 |
| 20260901153542 | 23 | 300 | 0.0 | 3.2 | 0.05 | 0.10 | 0.08 | 97 | 1014.8 |
| 20260901152029 | 23 | 300 | 0.0 | 0.0 | 0.08 | 0.10 | 0.08 | 96 | 1014.7 |